Temp
56 58 58 58 58 58 58 59 59 59 61 60 59 58 60 61 61 61 62 61 62 60 59 59 60 59 57 57 56 54 53 52
54 59 57 57 57 58 58 58 58 59 59 60 59 57 59 60 60 62 60 61 61 59 58 58 58 59 59 58 54 54 51 52
53 53 54 53 54 56 58 59 59 60 62 63 62 57 58 59 60 58 60 61 61 60 59 58 58 58 56 55 55 52 52 50
52 53 52 51 51 53 56 59 59 61 61 57 57 58 57 56 55 55 58 59 60 60 59 59 58 57 56 55 53 54 50 49
54 52 52 50 51 53 56 57 58 59 57 56 55 58 57 59 57 57 58 59 60 61 60 59 58 57 55 56 55 53 53 49
55 54 54 53 53 53 55 56 57 58 58 58 56 55 57 58 56 56 57 57 59 60 60 59 58 57 56 55 53 53 51 50
59 58 56 54 54 54 55 56 57 58 58 58 57 56 56 57 58 57 58 57 57 58 59 59 58 56 56 56 56 53 53 51
58 57 56 55 54 54 55 56 56 58 58 59 59 58 57 59 59 58 57 56 56 58 58 57 57 58 57 56 54 54 53 52
58 59 58 57 56 56 56 57 57 59 59 59 60 60 60 60 60 59 57 58 59 58 58 59 60 58 55 55 54 54 53 52
59 60 60 59 58 58 57 58 59 60 60 61 61 61 60 60 59 59 58 59 60 58 58 59 59 58 57 55 54 52 52 52
61 61 61 61 61 60 59 60 61 61 61 61 62 61 61 61 60 58 57 58 57 56 56 56 56 55 55 54 53 52 52 50
62 63 63 63 63 62 60 60 61 61 61 61 62 62 62 61 61 62 58 56 56 57 56 55 54 54 51 51 50 49 51 49
65 64 64 63 63 63 62 61 61 62 62 62 61 62 62 61 60 60 58 58 58 57 56 54 52 51 51 51 49 49 49 48
61 61 62 64 64 64 64 62 62 63 63 62 61 61 61 61 62 61 60 61 59 59 58 56 54 53 51 50 50 49 48 48
59 61 63 65 65 65 65 65 64 64 64 62 61 61 61 62 61 62 61 59 59 59 56 55 53 51 51 49 48 47 47 47
59 58 59 60 61 63 65 66 65 64 63 62 62 62 63 61 60 60 59 59 58 55 53 52 50 49 49 48 47 46 45 45
63 61 60 59 61 62 61 61 59 62 63 61 61 57 57 57 56 55 53 52 51 52 50 48 47 48 44 42 45 45 45 44
62 60 63 62 61 58 57 55 57 59 59 58 57 56 56 54 53 52 50 48 47 47 46 47 46 44 41 41 41 44 43 42
61 63 59 59 56 54 53 54 56 57 57 56 55 54 51 50 50 48 46 46 45 44 44 44 44 43 40 39 39 40 40 40
MSLP
1012.83 1013.19 1013.63 1014.09 1014.47 1014.83 1014.97 1015.15 1015.53 1016.02 1016.21 1016.42 1016.80 1017.28 1017.76 1017.69 1017.49 1018.05 1018.16 1018.72 1018.25 1019.18 1019.65 1019.75 1020.22 1020.70 1021.29 1021.68 1022.20 1022.94 1023.49 1023.85
1012.51 1012.88 1013.55 1013.99 1014.28 1014.80 1015.09 1015.31 1015.82 1016.17 1016.57 1016.65 1017.12 1017.44 1017.73 1018.01 1018.12 1018.37 1018.60 1018.53 1018.55 1019.33 1019.67 1019.76 1020.24 1020.87 1021.06 1021.56 1022.17 1022.92 1023.45 1023.94
1012.02 1012.77 1013.41 1013.76 1013.99 1014.40 1014.77 1015.24 1015.59 1015.95 1016.21 1016.39 1016.95 1017.49 1017.55 1017.75 1017.80 1017.64 1018.23 1018.37 1018.14 1018.96 1019.30 1019.77 1020.12 1020.80 1021.19 1021.62 1021.92 1022.81 1023.54 1023.77
1011.50 1012.17 1012.89 1013.46 1013.70 1014.21 1014.60 1014.95 1015.27 1015.74 1016.22 1016.89 1017.29 1017.76 1017.79 1017.90 1017.76 1018.01 1018.36 1018.14 1018.29 1018.66 1019.10 1019.56 1019.92 1020.26 1020.84 1021.06 1021.43 1022.10 1022.96 1023.44
1010.78 1011.53 1012.50 1012.74 1013.21 1013.87 1014.25 1014.58 1015.01 1015.56 1016.24 1016.62 1017.05 1017.40 1017.45 1017.76 1017.80 1017.79 1017.74 1017.80 1018.05 1018.51 1018.92 1019.39 1019.24 1020.15 1020.32 1020.53 1020.91 1021.53 1021.90 1022.56
1009.49 1010.23 1011.02 1011.87 1012.65 1013.18 1013.78 1014.19 1014.50 1015.08 1015.86 1016.18 1016.57 1017.19 1017.02 1017.12 1017.46 1017.63 1017.72 1017.76 1017.84 1018.16 1018.66 1018.54 1019.03 1019.61 1019.68 1020.13 1020.76 1021.28 1021.42 1021.82
1008.44 1009.46 1010.81 1011.48 1012.21 1012.67 1013.21 1013.75 1014.24 1014.68 1015.03 1015.38 1015.80 1016.15 1016.47 1016.95 1017.23 1017.39 1017.32 1017.29 1017.56 1017.59 1017.76 1017.99 1018.62 1018.83 1019.19 1019.49 1019.88 1020.40 1020.86 1021.12
1007.82 1008.71 1009.68 1010.63 1011.46 1012.03 1012.48 1012.92 1013.30 1013.83 1014.31 1014.50 1014.84 1015.26 1015.72 1016.07 1016.27 1016.38 1016.79 1016.94 1017.07 1016.96 1017.24 1017.89 1018.02 1018.04 1018.73 1019.16 1019.52 1019.96 1020.07 1020.46
1006.83 1007.46 1008.22 1009.25 1010.13 1010.98 1011.49 1011.93 1012.33 1012.75 1013.28 1013.80 1014.19 1014.43 1014.91 1015.39 1015.47 1015.98 1016.05 1016.23 1016.16 1016.48 1016.82 1016.92 1016.89 1017.36 1018.29 1018.73 1019.19 1019.60 1019.67 1020.03
1005.56 1006.57 1007.33 1008.17 1008.89 1009.53 1010.19 1010.64 1011.13 1011.66 1011.92 1012.34 1012.94 1013.63 1014.04 1014.18 1014.97 1015.34 1015.66 1015.73 1015.85 1016.05 1016.20 1016.60 1016.63 1016.63 1017.16 1018.06 1018.39 1018.24 1019.10 1019.47
1004.34 1005.49 1006.30 1006.93 1007.46 1008.09 1009.27 1009.70 1009.82 1010.11 1011.19 1011.83 1012.19 1012.74 1013.26 1013.75 1014.38 1014.76 1015.13 1015.43 1015.60 1015.81 1015.96 1016.30 1016.55 1016.19 1017.17 1017.75 1018.00 1018.18 1018.57 1019.12
1003.30 1003.69 1004.74 1005.46 1006.24 1007.30 1007.99 1008.94 1009.09 1009.71 1010.03 1010.57 1011.47 1011.97 1012.79 1013.65 1014.02 1014.02 1014.14 1014.50 1014.79 1015.10 1015.28 1015.56 1015.59 1016.22 1016.95 1017.47 1017.87 1018.26 1018.45 1018.76
1002.44 1002.95 1003.40 1004.54 1005.17 1006.00 1006.70 1007.19 1007.88 1008.23 1008.97 1009.70 1010.14 1011.01 1011.58 1012.09 1012.21 1012.05 1012.66 1012.82 1013.15 1013.87 1014.72 1013.91 1014.16 1015.86 1016.64 1016.99 1017.34 1017.63 1018.22 1018.41
1001.62 1002.32 1002.88 1003.21 1003.89 1004.80 1005.49 1006.02 1006.26 1006.91 1008.03 1008.46 1009.18 1009.65 1010.26 1009.95 1009.91 1010.39 1010.95 1011.84 1012.57 1013.12 1013.26 1013.49 1014.20 1015.17 1015.99 1016.37 1016.93 1017.20 1017.72 1018.24
1001.03 1001.54 1001.94 1002.19 1002.77 1003.27 1003.97 1004.41 1004.71 1005.65 1006.53 1007.15 1007.73 1008.13 1008.42 1008.86 1009.25 1010.05 1010.43 1010.92 1011.52 1011.87 1012.54 1013.08 1014.14 1014.94 1015.46 1016.15 1016.56 1017.06 1017.63 1018.19
1000.72 1001.02 1001.10 1001.60 1002.20 1002.56 1002.95 1003.12 1003.74 1004.60 1005.42 1006.01 1006.25 1006.98 1007.57 1008.22 1008.85 1009.34 1010.10 1010.53 1011.03 1011.48 1012.12 1012.78 1013.70 1014.42 1015.16 1015.86 1016.21 1016.72 1017.56 1018.32
999.92 1000.38 1000.86 1000.92 1001.39 1001.65 1002.07 1002.63 1002.98 1003.61 1004.24 1004.88 1005.83 1006.66 1007.46 1007.82 1008.55 1009.24 1009.81 1010.52 1011.06 1011.60 1012.34 1013.10 1013.92 1014.31 1014.90 1015.70 1016.19 1017.03 1017.80 1018.38
999.35 999.85 1000.17 1000.31 1000.62 1000.85 1001.51 1002.25 1002.51 1003.26 1004.01 1004.72 1005.50 1006.30 1006.95 1007.65 1008.52 1009.24 1009.86 1010.55 1011.23 1011.81 1012.55 1013.12 1013.63 1014.39 1015.24 1015.80 1016.31 1016.98 1017.61 1018.10
998.75 998.61 999.44 999.92 1000.48 1001.37 1001.85 1002.55 1002.79 1003.36 1004.31 1004.89 1005.53 1006.35 1007.11 1007.87 1008.56 1009.27 1009.93 1010.65 1011.06 1011.80 1012.49 1013.09 1013.79 1014.68 1015.26 1015.80 1016.40 1016.95 1017.64 1018.36
Wind_Speed
9 10 9 10 9 9 9 8 8 6 5 4 3 3 2 1 3 3 6 5 6 5 4 5 5 4 4 4 5 2 3 4
8 10 9 10 9 11 10 12 11 8 7 7 3 2 2 1 3 6 5 5 6 5 3 4 4 6 7 7 4 4 1 3
9 9 10 9 11 10 12 11 12 9 8 6 4 2 2 2 1 2 4 6 5 5 6 5 6 4 5 6 5 4 2 4
11 14 12 9 11 11 11 12 10 9 9 3 1 2 2 2 2 2 4 4 5 6 6 5 6 5 6 7 6 7 5 4
10 12 14 14 13 11 12 12 11 9 6 6 6 8 8 5 4 2 5 4 5 6 7 7 6 5 6 8 6 5 5 5
16 17 16 14 13 13 12 12 12 12 11 9 8 8 6 4 3 5 6 6 7 7 9 8 7 7 7 8 6 6 4 4
15 12 11 11 10 11 13 14 14 15 15 16 14 14 9 9 10 9 7 4 6 8 7 8 8 7 7 8 9 9 9 5
15 14 14 14 15 15 14 16 19 18 18 17 18 16 14 15 13 11 8 6 5 8 9 7 7 8 6 5 7 9 10 9
17 19 17 16 17 18 18 19 19 20 19 19 17 17 11 13 13 9 6 8 7 6 10 10 11 7 5 5 5 6 8 8
19 18 18 17 17 20 21 21 20 20 22 18 18 15 16 13 11 7 6 7 7 6 7 7 7 6 11 11 10 11 9 9
18 17 18 18 19 19 18 19 21 21 17 17 14 14 14 12 8 8 8 7 5 5 5 5 6 7 10 9 6 8 10 7
16 19 19 21 18 17 18 18 20 17 18 16 15 15 12 10 12 14 9 7 8 9 8 8 7 8 6 8 7 7 9 7
13 16 17 17 19 18 21 20 20 21 17 18 18 16 16 16 16 18 15 15 12 10 8 9 9 9 9 11 10 9 9 8
10 8 13 17 18 18 18 19 22 20 18 19 18 18 18 21 20 17 16 15 14 15 13 10 9 10 10 9 9 8 7 7
9 11 14 15 16 18 18 19 20 18 19 19 19 19 21 19 15 16 15 15 17 15 10 11 10 9 9 8 8 7 6 6
7 7 11 11 11 13 15 17 15 14 16 17 20 18 15 12 12 12 12 11 12 8 8 7 8 9 7 9 9 8 8 7
11 10 8 9 12 14 12 10 10 14 16 17 13 9 9 9 8 8 8 7 7 7 8 10 9 5 10 11 10 8 7 8
11 11 15 11 12 10 9 7 7 10 11 9 9 8 9 9 9 9 8 9 10 9 9 9 8 6 13 13 11 7 7 7
10 10 10 10 6 5 8 7 8 9 8 8 9 10 10 10 11 9 8 7 9 8 8 8 8 6 11 12 12 8 8 7
Wind_Direction
186 166 163 161 153 158 159 160 168 179 160 101 50 37 287 240 122 171 155 189 141 165 193 173 167 159 167 162 154 152 163 167
171 182 169 167 161 168 168 163 164 167 185 177 164 203 247 227 167 189 181 181 154 173 195 164 153 180 189 186 129 161 128 135
171 175 174 181 171 177 174 176 170 179 187 195 192 208 264 257 241 285 214 224 164 182 187 189 176 174 176 165 160 121 121 178
186 189 188 177 178 183 184 181 178 186 180 146 119 107 342 298 283 232 227 222 210 201 199 185 187 176 188 187 172 166 159 203
191 188 197 188 188 181 185 184 181 189 182 179 192 220 222 228 228 262 271 220 220 204 202 203 185 201 188 198 186 184 151 168
190 195 200 194 180 181 187 189 190 195 194 195 189 210 214 225 224 230 242 235 218 205 205 197 201 203 200 187 180 193 204 164
205 187 184 195 185 184 185 190 197 198 200 200 200 204 201 206 218 222 230 218 217 214 204 203 202 199 201 203 200 198 202 211
199 189 184 182 189 195 190 191 199 201 207 209 209 209 207 215 219 219 218 222 220 222 204 203 206 208 217 194 197 221 200 206
199 200 196 192 189 194 196 198 205 203 204 210 212 215 218 222 225 226 221 227 231 214 207 209 205 168 183 184 208 218 211 211
198 200 199 198 196 198 199 201 207 207 208 207 211 211 219 223 225 232 231 235 231 215 222 215 205 190 211 206 212 203 196 202
197 197 202 202 205 203 204 209 209 208 207 212 214 213 223 229 225 220 220 224 212 210 181 179 192 197 216 211 214 195 190 198
200 194 199 206 205 201 205 211 215 213 214 210 212 217 215 218 225 236 204 162 173 200 193 195 185 215 188 194 200 190 190 169
202 199 195 198 204 200 200 209 211 213 208 209 209 208 199 201 206 205 180 183 184 182 200 221 176 185 193 201 196 186 184 170
198 180 194 200 201 202 203 205 215 211 207 207 206 205 205 211 222 213 199 202 189 194 209 217 201 197 194 192 189 168 164 168
201 198 203 205 200 201 202 208 213 205 205 205 206 203 208 217 219 219 208 200 199 204 197 180 185 182 184 176 163 155 156 162
211 219 198 196 198 203 206 214 209 196 198 203 208 208 206 204 201 198 202 201 200 181 169 154 160 164 165 170 165 156 157 157
214 203 226 184 196 202 199 203 189 179 192 200 188 167 163 172 168 158 150 151 142 147 144 145 152 161 166 152 144 150 151 150
214 193 201 204 204 192 184 172 146 167 181 171 172 156 162 151 152 148 150 143 135 133 138 144 139 131 152 152 134 139 138 132
230 220 186 196 165 132 120 129 135 136 151 148 142 144 140 139 141 140 127 135 130 130 123 124 129 139 142 130 120 114 108 104